Saginaw, Michigan, United States (48601)
Lat: 43.42N, Lon: 83.95W
Wx Zone: MIZ053
Local Info
Past Weather Observations for Today

NOTE: This archive is for the closest National Weather Service station to Saginaw. Information may differ from the station used for current weather conditions.

Click here for Long-term Archive

Time Weather Temperature Dewpoint Humidity Pressure Winds Precip Visibility
20:14
Clear
72°F / 22°C 61°F / 16°C 69% 29.92 in
(1013 mb)
SSW 9.2 mph
(SSW 15 kph)
- 10SM
19:55
Clear
72°F / 22°C 61°F / 16°C 69% 29.92 in
(1013 mb)
SSW 11.5 mph
(SSW 19 kph)
- 10SM
19:35
Partly Cloudy
73°F / 23°C 61°F / 16°C 65% 29.92 in
(1013 mb)
SW 10.4 mph
(SW 17 kph)
- 10SM
19:14
Overcast
73°F / 23°C 61°F / 16°C 65% 29.92 in
(1013 mb)
SSW 16.1 mph
(SSW 26 kph)
- 10SM
18:55
Mostly Cloudy
73°F / 23°C 63°F / 17°C 69% 29.92 in
(1013 mb)
SSW 13.8 mph
(SSW 22 kph)
- 10SM
18:35
Partly Cloudy
73°F / 23°C 63°F / 17°C 69% 29.89 in
(1012 mb)
SSW 13.8 mph
(SSW 22 kph)
- 10SM
18:14
Partly Cloudy
73°F / 23°C 64°F / 18°C 74% 29.89 in
(1012 mb)
SSW 13.8 mph
(SSW 22 kph)
- 10SM
17:55
Mostly Cloudy
73°F / 23°C 66°F / 19°C 78% 29.89 in
(1012 mb)
SW 13.8 mph
(SW 22 kph)
- 10SM
17:35
Mostly Cloudy
72°F / 22°C 72°F / 22°C 100% 29.89 in
(1012 mb)
SSE 18.4 mph
(SSE 30 kph)
- 10SM
17:14
Overcast
72°F / 22°C 72°F / 22°C 100% 29.89 in
(1012 mb)
SSE 13.8 mph
(SSE 22 kph)
- 10SM
16:55
Overcast
70°F / 21°C 70°F / 21°C 100% 29.89 in
(1012 mb)
SSE 13.8 mph
(SSE 22 kph)
- 10SM
16:35
Overcast
Light Rain
70°F / 21°C 70°F / 21°C 100% 29.89 in
(1012 mb)
SW 11.5 mph
(SW 19 kph)
- 5SM
16:14
Mostly Cloudy
70°F / 21°C 70°F / 21°C 100% 29.89 in
(1012 mb)
SW 11.5 mph
(SW 19 kph)
- 10SM
15:55
Mostly Cloudy
Rain
72°F / 22°C 72°F / 22°C 100% 29.89 in
(1012 mb)
SSW 19.6 mph
(SSW 32 kph)
- 7SM
15:34
Mostly Cloudy
Fog And Mist
70°F / 21°C 70°F / 21°C 100% 29.86 in
(1011 mb)
SSW 10.4 mph
(SSW 17 kph)
- 4SM
15:15
Overcast
79°F / 26°C 68°F / 20°C 70% 29.83 in
(1010 mb)
SW 12.7 mph
(SW 20 kph)
- 10SM
14:55
Partly Cloudy
75°F / 24°C 73°F / 23°C 94% 29.86 in
(1011 mb)
SSE 18.4 mph
(SSE 30 kph)
- 10SM
14:34
Clear
73°F / 23°C 73°F / 23°C 100% 29.86 in
(1011 mb)
SSE 15 mph
(SSE 24 kph)
- 10SM
14:15
Mostly Cloudy
70°F / 21°C 70°F / 21°C 100% 29.89 in
(1012 mb)
S 17.3 mph
(S 28 kph)
- 10SM
13:55
Overcast
Light Rain
68°F / 20°C 68°F / 20°C 100% 29.89 in
(1012 mb)
S 13.8 mph
(S 22 kph)
- 4SM
13:34
Mostly Cloudy
77°F / 25°C 63°F / 17°C 61% 29.89 in
(1012 mb)
SSW 10.4 mph
(SSW 17 kph)
- 10SM
13:15
Mostly Cloudy
79°F / 26°C 63°F / 17°C 58% 29.89 in
(1012 mb)
SW 12.7 mph
(SW 20 kph)
- 10SM
12:55
Overcast
73°F / 23°C 63°F / 17°C 69% 29.89 in
(1012 mb)
SSW 16.1 mph
(SSW 26 kph)
- 10SM
12:34
Mostly Cloudy
81°F / 27°C 61°F / 16°C 51% 29.89 in
(1012 mb)
S 26.5 mph
(S 43 kph)
- 10SM
12:15
Overcast
79°F / 26°C 63°F / 17°C 58% 29.89 in
(1012 mb)
S 17.3 mph
(S 28 kph)
- 10SM
11:55
Overcast
77°F / 25°C 63°F / 17°C 61% 29.92 in
(1013 mb)
S 15 mph
(S 24 kph)
- 10SM
11:34
Mostly Cloudy
77°F / 25°C 61°F / 16°C 57% 29.92 in
(1013 mb)
SSE 18.4 mph
(SSE 30 kph)
- 10SM
11:15
Mostly Cloudy
77°F / 25°C 63°F / 17°C 61% 29.92 in
(1013 mb)
S 16.1 mph
(S 26 kph)
- 10SM
10:55
Mostly Cloudy
77°F / 25°C 61°F / 16°C 57% 29.92 in
(1013 mb)
SSE 17.3 mph
(SSE 28 kph)
- 10SM
10:34
Mostly Cloudy
77°F / 25°C 61°F / 16°C 57% 29.92 in
(1013 mb)
SSE 13.8 mph
(SSE 22 kph)
- 10SM
10:15
Mostly Cloudy
79°F / 26°C 61°F / 16°C 54% 29.92 in
(1013 mb)
S 19.6 mph
(S 32 kph)
- 10SM
09:55
Partly Cloudy
77°F / 25°C 61°F / 16°C 57% 29.92 in
(1013 mb)
SW 17.3 mph
(SW 28 kph)
- 10SM
09:35
Clear
77°F / 25°C 61°F / 16°C 57% 29.92 in
(1013 mb)
S 19.6 mph
(S 32 kph)
- 10SM
09:15
Clear
75°F / 24°C 61°F / 16°C 61% 29.95 in
(1014 mb)
SSE 13.8 mph
(SSE 22 kph)
- 10SM
08:54
Partly Cloudy
73°F / 23°C 59°F / 15°C 61% 29.95 in
(1014 mb)
S 16.1 mph
(S 26 kph)
- 10SM
08:34
Partly Cloudy
73°F / 23°C 59°F / 15°C 61% 29.95 in
(1014 mb)
SSE 17.3 mph
(SSE 28 kph)
- 10SM
08:15
Mostly Cloudy
72°F / 22°C 59°F / 15°C 65% 29.95 in
(1014 mb)
S 16.1 mph
(S 26 kph)
- 10SM
07:54
Partly Cloudy
72°F / 22°C 57°F / 14°C 61% 29.95 in
(1014 mb)
SSE 18.4 mph
(SSE 30 kph)
- 10SM
07:34
Mostly Cloudy
72°F / 22°C 57°F / 14°C 61% 29.95 in
(1014 mb)
S 17.3 mph
(S 28 kph)
- 10SM
07:15
Mostly Cloudy
70°F / 21°C 55°F / 13°C 60% 29.95 in
(1014 mb)
S 13.8 mph
(S 22 kph)
- 10SM
06:54
Clear
70°F / 21°C 55°F / 13°C 60% 29.95 in
(1014 mb)
S 15 mph
(S 24 kph)
- 10SM
06:35
Clear
70°F / 21°C 55°F / 13°C 60% 29.95 in
(1014 mb)
S 11.5 mph
(S 19 kph)
- 10SM
06:15
Clear
68°F / 20°C 55°F / 13°C 64% 29.95 in
(1014 mb)
S 12.7 mph
(S 20 kph)
- 10SM
05:54
Clear
66°F / 19°C 55°F / 13°C 68% 29.95 in
(1014 mb)
S 10.4 mph
(S 17 kph)
- 10SM
05:35
Clear
66°F / 19°C 55°F / 13°C 68% 29.95 in
(1014 mb)
S 9.2 mph
(S 15 kph)
- 10SM
05:15
Partly Cloudy
66°F / 19°C 54°F / 12°C 64% 29.95 in
(1014 mb)
S 9.2 mph
(S 15 kph)
- 10SM
04:54
Partly Cloudy
66°F / 19°C 54°F / 12°C 64% 29.95 in
(1014 mb)
S 9.2 mph
(S 15 kph)
- 10SM
04:35
Clear
68°F / 20°C 54°F / 12°C 60% 29.95 in
(1014 mb)
S 9.2 mph
(S 15 kph)
- 10SM
04:15
Partly Cloudy
68°F / 20°C 54°F / 12°C 60% 29.95 in
(1014 mb)
S 10.4 mph
(S 17 kph)
- 10SM
03:54
Overcast
70°F / 21°C 54°F / 12°C 57% 29.95 in
(1014 mb)
S 12.7 mph
(S 20 kph)
- 10SM
03:35
Mostly Cloudy
68°F / 20°C 54°F / 12°C 60% 29.95 in
(1014 mb)
S 12.7 mph
(S 20 kph)
- 10SM
03:15
Mostly Cloudy
68°F / 20°C 54°F / 12°C 60% 29.95 in
(1014 mb)
S 11.5 mph
(S 19 kph)
- 10SM
02:54
Overcast
64°F / 18°C 54°F / 12°C 68% 29.98 in
(1015 mb)
S 9.2 mph
(S 15 kph)
- 10SM
02:35
Partly Cloudy
63°F / 17°C 54°F / 12°C 73% 29.98 in
(1015 mb)
S 6.9 mph
(S 11 kph)
- 10SM
02:15
Partly Cloudy
63°F / 17°C 55°F / 13°C 77% 29.98 in
(1015 mb)
SSE 5.8 mph
(SSE 9 kph)
- 10SM
01:54
Overcast
63°F / 17°C 55°F / 13°C 77% 29.98 in
(1015 mb)
SSE 3.5 mph
(SSE 6 kph)
- 10SM
01:35
Overcast
63°F / 17°C 57°F / 14°C 83% 30.01 in
(1016 mb)
Calm - 10SM
01:15
Overcast
63°F / 17°C 57°F / 14°C 83% 30.01 in
(1016 mb)
E 3.5 mph
(E 6 kph)
- 10SM
00:54
Overcast
63°F / 17°C 57°F / 14°C 83% 30.01 in
(1016 mb)
ENE 3.5 mph
(ENE 6 kph)
- 10SM
00:35
Overcast
63°F / 17°C 55°F / 13°C 77% 30.01 in
(1016 mb)
ENE 5.8 mph
(ENE 9 kph)
- 10SM
00:15
Overcast
63°F / 17°C 55°F / 13°C 77% 30.04 in
(1017 mb)
E 4.6 mph
(E 7 kph)
- 10SM
Time Weather Temperature Dewpoint Humidity Pressure Winds Precip Visibility


Weather for websites

WeatherForYou.com, LLC is not responsible for any damages or problems caused by this service. Current weather conditions are obtained from the closest station including government and personal stations which may have varying degrees of accuracy. Weather forecasts are derived from the NOAA NDFD. Like all things, this site belongs to Jesus Christ... He just trusts us to maintain it. If you have any questions or comments email webmaster@weatherforyou.com

Copyright © 2015, WeatherForYou.com LLC. All rights reserved.